Regional Weather Roundup
Issued by NWS

Home | Current Version | Previous Version | Graphics & Text | Print | Product List | Glossary On
Versions: 1 2 3 4 5 6 7 8 9 10 11 12 13 14 15 16 17 18 19 20 21 22 23 24 25 26 27 28 29 30 31 32 33 34 35 36 37 38 39 40 41 42 43 44 45 46 47 48 49 50
000
ASUS43 KIND 230609
RWRIN

WEATHER ROUNDUP FOR INDIANA
NATIONAL WEATHER SERVICE INDIANAPOLIS IN
100 AM EST SUN NOV 23 2014

NOTE: "FAIR" INDICATES FEW OR NO CLOUDS BELOW 12,000 FEET WITH NO
SIGNIFICANT WEATHER AND/OR OBSTRUCTIONS TO VISIBILITY.

* - STATION DOES NOT REPORT WEATHER SUCH AS PRECIPITATION OR FOG.

+ - STATION NOT QUALITY CONTROLLED BY THE NATIONAL WEATHER SERVICE.
    USE DATA WITH CAUTION...ESPECIALLY DEWPOINT AND RELATIVE
    HUMIDITY OBSERVATIONS.

INZ001>003-010>013-019-020-230700-
NORTHWEST INDIANA

CITY           SKY/WX    TMP DP  RH WIND       PRES   REMARKS
GARY /AIRPORT/ HVY RAIN  53  47  80 S9G23     29.88R
KNOX *+        CLOUDY    49  44  83 S12       29.91S
LA PORTE +     CLOUDY    51  47  84 S14       29.91S
6HR MIN TEMP:  50; 6HR MAX TEMP:  52;

MICHIGAN CITY+ CLOUDY    50  43  76 SW12G18   29.90R
MONTICELLO +   LGT RAIN  48  46  91 S8        29.94S
RENSSELAER +   CLOUDY    50  46  87 S15G23    29.92S
VALPARAISO     CLOUDY    50  45  83 S16       29.91S
6HR MIN TEMP:  49; 6HR MAX TEMP:  50;


$$

LMZ046-743>745-230700-
SOUTHERN LAKE MICHIGAN

STATION/POSITION TIME  TEMP WIND        PRES
                       AIR  DIR/SP/G
                 (UTC) (F)  (DEG/KT/KT) (MB)
MICHIGAN CITY    0600   51  170/ 15/ 19   N/A

$$

INZ004-005-014>016-021>024-230700-
NORTH CENTRAL INDIANA

CITY           SKY/WX    TMP DP  RH WIND       PRES   REMARKS
GOSHEN         CLOUDY    50  44  80 S18       29.93S
6HR MIN TEMP:  49; 6HR MAX TEMP:  51; 6HR PCP: TRACE;

LOGANSPORT +   RAIN      45  43  93 S13       29.95F
PERU/GRISSOM   CLOUDY    47  47 100 S14       29.96S
6HR MIN TEMP:  47; 6HR MAX TEMP:  52; 6HR PCP:  0.17;

ROCHESTER +    LGT RAIN  48  46  93 S10       29.95S
SOUTH BEND     CLOUDY    51  45  79 SW18      29.92
6HR MIN TEMP:  47; 6HR MAX TEMP:  52;

WARSAW +       RAIN      48  45  87 SW6       29.94F

$$

INZ006>009-017-018-025>027-230700-
NORTHEAST INDIANA

CITY           SKY/WX    TMP DP  RH WIND       PRES   REMARKS
ANGOLA *+      CLOUDY    50  43  76 SW12      29.94F
FORT WAYNE     LGT RAIN  46  42  86 S8        29.98F
6HR MIN TEMP:  46; 6HR MAX TEMP:  50; 6HR PCP:  0.04;

HUNTINGTON +   LGT RAIN  46  43  88 S9        29.97S
6HR MIN TEMP:  46; 6HR MAX TEMP:  52; 6HR PCP:  0.07;


$$

INZ028-029-035-036-043>045-051>053-230700-
WEST CENTRAL INDIANA

CITY           SKY/WX    TMP DP  RH WIND       PRES   REMARKS
GREENCASTLE +  LGT RAIN  50  41  71 S5        29.99F
LAFAYETTE      LGT RAIN  48  45  89 S9        29.95S
6HR MIN TEMP:  48; 6HR MAX TEMP:  53; 6HR PCP:  0.15;

TERRE HAUTE    CLOUDY    48  42  80 SE8       29.97F
6HR MIN TEMP:  48; 6HR MAX TEMP:  56; 6HR PCP:  0.02;


$$

INZ030>032-037>040-046>048-054>057-064-065-230700-
CENTRAL INDIANA

CITY           SKY/WX    TMP DP  RH WIND       PRES   REMARKS
CP ATTERBURY + DRIZZLE   52  36  54 S5        30.01S
FRANKFORT +    DRIZZLE   47  44  88 S12       29.97F
INDIANAPOLIS   LGT RAIN  47  42  83 S5        29.99S
6HR MIN TEMP:  47; 6HR MAX TEMP:  54; 6HR PCP:  0.05;

-EAGLE CREEK   LGT RAIN  48  43  82 CALM      29.99S
6HR MIN TEMP:  48; 6HR MAX TEMP:  55; 6HR PCP:  0.05;

KOKOMO *+      CLOUDY    45  43  93 S9        29.97F
MARION +       LGT RAIN  46  40  78 S12       30.00R
MT COMFORT *+  CLOUDY    46  36  66 S3        30.01S
SHELBYVILLE    CLOUDY    50  39  66 S7        30.01S
6HR MIN TEMP:  50; 6HR MAX TEMP:  55; 6HR PCP:  0.01;

ZIONSVILLE +   RAIN      48  41  77 S8        29.99F
6HR MIN TEMP:  48; 6HR MAX TEMP:  55; 6HR PCP:  0.04;


$$

INZ033-034-041-042-049-050-058-059-230700-
EAST CENTRAL INDIANA

CITY           SKY/WX    TMP DP  RH WIND       PRES   REMARKS
MUNCIE         LGT RAIN  48  41  76 SW10      30.00S
6HR MIN TEMP:  48; 6HR MAX TEMP:  53; 6HR PCP:  0.03;


$$

INZ060-061-067>069-081>083-085>088-230700-
SOUTHWEST INDIANA

CITY           SKY/WX    TMP DP  RH WIND       PRES   REMARKS
EVANSVILLE     PTCLDY    51  35  54 SE5       30.00F
6HR MIN TEMP:  51; 6HR MAX TEMP:  59;

HUNTINGBURG *+ MOCLDY    54  37  54 S9        30.01F
6HR MIN TEMP:  54; 6HR MAX TEMP:  57;

WASHINGTON +   CLOUDY    51  39  63 S9        29.97F
6HR MIN TEMP:  50; 6HR MAX TEMP:  53;


$$

INZ062-063-066-070>080-084-089>092-230700-
SOUTH CENTRAL AND SOUTHEAST INDIANA

CITY           SKY/WX    TMP DP  RH WIND       PRES   REMARKS
BLOOMINGTON    LGT RAIN  53  38  56 VRB5      30.00R
6HR MIN TEMP:  53; 6HR MAX TEMP:  56; 6HR PCP: TRACE;


$$



USA.gov is the U.S. government's official web portal to all federal, state and local government web resources and services.